Regional Weather Roundup
Issued by NWS

Home | Current Version | Previous Version | Graphics & Text | Print | Product List | Glossary On
Versions: 1 2 3 4 5 6 7 8 9 10 11 12 13 14 15 16 17 18 19 20 21 22 23 24 25 26 27 28 29 30 31 32 33 34 35 36 37 38 39 40 41 42 43 44 45 46 47 48 49 50
000
ASUS43 KOAX 070502
RWRNE

WEATHER ROUNDUP FOR NEBRASKA
NATIONAL WEATHER SERVICE OMAHA NE
1100 PM CST SAT FEB 06 2016

NOTES: SATELLITE DATA IS BEING USED TO AUGMENT CLOUD COVER ABOVE
       12000 FEET.
       "FAIR" INDICATES FEW OR NO CLOUDS BELOW 12,000 FEET WITH NO
       SIGNIFICANT WEATHER AND/OR OBSTRUCTIONS TO VISIBILITY.

  * THESE STATIONS DO NOT REPORT WEATHER SUCH AS RAIN...SNOW OR FOG.

NEZ001>004-019>022-054>056-070600-
NEBRASKA PANHANDLE

CITY           SKY/WX    TMP DP  RH WIND       PRES   REMARKS
SCOTTSBLUFF    CLOUDY    35  24  64 NW13      30.12R WCI  26
CHADRON        CLEAR     33  26  75 W12       30.09R WCI  24
KIMBALL        CLOUDY    34  26  71 NW6       30.12R WCI  29
SIDNEY         CLOUDY    36  26  67 NW13      30.11R WCI  27
$$

NEZ057>060-069>072-079>082-070600-
SOUTHWEST NEBRASKA

CITY           SKY/WX    TMP DP  RH WIND       PRES   REMARKS
NORTH PLATTE   CLOUDY    36  26  67 NW12      30.05R WCI  28
IMPERIAL       CLOUDY    34  24  67 NW10      30.07R WCI  26
MCCOOK         CLOUDY    37  26  64 W14       30.04R WCI  28
$$

NEZ005>010-023>029-035>040-094-070600-
NORTH CENTRAL NEBRASKA

CITY           SKY/WX    TMP DP  RH WIND       PRES   REMARKS
VALENTINE      MOCLDY    39  27  62 W10       29.98R WCI  32
AINSWORTH      PTCLDY    38  28  69 NW9       29.97S WCI  31
BROKEN BOW     CLOUDY    39  28  64 NW15      29.98R WCI  31
ORD            CLOUDY    38  29  70 NW13      29.95R WCI  30
$$

NEZ041-046>049-061>064-073>077-083>087-070600-
SOUTH CENTRAL NEBRASKA

CITY           SKY/WX    TMP DP  RH WIND       PRES   REMARKS
GRAND ISLAND   CLOUDY    33  26  75 W15       29.96R WCI  23
HASTINGS       CLOUDY    33  26  75 W15       29.96R WCI  23
HEBRON         PTCLDY    34  28  78 SW10      29.98F WCI  26
$$

NEZ011>018-030>034-042>045-070600-
NORTHEAST NEBRASKA

CITY           SKY/WX    TMP DP  RH WIND       PRES   REMARKS
NORFOLK        CLOUDY    32  26  78 W8        29.90R WCI  25
BLAIR          CLOUDY    35  28  74 SW10      29.91S WCI  28
COLUMBUS *     CLOUDY    34  21  60 W12G18    29.93R WCI  25
FREMONT        CLOUDY    35  26  70 SW5       29.92S WCI  31
TEKAMAH        CLOUDY    35  26  69 SW9       29.92R WCI  28
$$

NEZ050>053-065>068-078-088>093-070600-
SOUTHEAST NEBRASKA

CITY           SKY/WX    TMP DP  RH WIND       PRES   REMARKS
LINCOLN        CLOUDY    37  28  70 SW15      29.94F WCI  28
OMAHA EPPLEY   CLOUDY    39  27  62 S8G17     29.92F WCI  33
BEATRICE       CLOUDY    34  27  76 SW3       29.98F
FALLS CITY     CLOUDY    38  27  64 S16       30.01F WCI  29
NEBRASKA CITY  CLOUDY    36  28  73 SW14      29.96F WCI  27
$$

NEZ044-045-051>053-067-070600-
OMAHA AREA

CITY           SKY/WX    TMP DP  RH WIND       PRES   REMARKS
OMAHA EPPLEY   CLOUDY    39  27  62 S8G17     29.92F WCI  33
BLAIR          CLOUDY    35  28  74 SW10      29.91S WCI  28
FREMONT        CLOUDY    35  26  70 SW5       29.92S WCI  31
OFFUTT AFB     CLOUDY    36  28  72 SE3       29.92F
WAHOO          FAIR      36  28  73 SW8       29.92R WCI  29
$$



USA.gov is the U.S. government's official web portal to all federal, state and local government web resources and services.